Precipitable_Water
0.56 0.57 0.55 0.52 0.57 0.57 0.57 0.55 0.52 0.52 0.50 0.50 0.49 0.50 0.49 0.48 0.48 0.42 0.50 0.62 0.48 0.40 0.44 0.58 0.58 0.56 0.65 0.69 0.61 0.77 0.64 0.58 0.57 0.34 0.36 0.35 0.39 0.44 0.52 0.56 0.54 0.48 0.43 0.44 0.47 0.38 0.34 0.79 0.76 0.59 0.84 0.98 1.04 1.05
0.57 0.58 0.57 0.52 0.54 0.56 0.56 0.56 0.56 0.56 0.51 0.46 0.47 0.48 0.47 0.46 0.47 0.44 0.44 0.57 0.56 0.43 0.42 0.55 0.56 0.55 0.60 0.74 0.73 0.85 0.73 0.73 0.65 0.59 0.52 0.58 0.56 0.64 0.63 0.53 0.75 0.63 0.72 0.66 0.65 0.63 0.83 0.97 0.97 1.04 0.98 0.90 1.00 0.97
0.57 0.60 0.56 0.54 0.54 0.58 0.59 0.55 0.52 0.50 0.50 0.48 0.47 0.46 0.45 0.45 0.45 0.45 0.39 0.52 0.54 0.42 0.38 0.41 0.40 0.56 0.59 0.65 0.69 0.62 0.75 0.95 0.86 0.85 0.66 0.64 0.61 0.71 0.60 0.65 0.75 0.92 0.97 0.83 0.79 0.81 0.91 1.13 1.10 1.07 1.07 0.93 1.00 0.98
0.54 0.52 0.53 0.53 0.51 0.51 0.55 0.54 0.52 0.51 0.49 0.46 0.46 0.45 0.44 0.43 0.47 0.45 0.42 0.54 0.56 0.46 0.32 0.40 0.54 0.49 0.55 0.61 0.64 0.63 0.65 0.72 0.85 0.77 0.62 0.59 0.55 0.72 0.66 0.75 0.77 0.83 0.85 0.74 0.77 0.88 0.87 1.12 1.16 1.06 1.01 0.98 0.97 0.97
0.56 0.52 0.57 0.55 0.54 0.56 0.54 0.54 0.52 0.49 0.47 0.45 0.46 0.45 0.43 0.44 0.47 0.49 0.51 0.53 0.58 0.47 0.38 0.48 0.56 0.52 0.53 0.52 0.53 0.56 0.60 0.60 0.55 0.53 0.52 0.49 0.59 0.65 0.68 0.68 0.65 0.75 0.78 0.73 0.67 0.98 1.18 1.07 1.20 1.21 1.06 1.00 1.00 0.90
0.58 0.58 0.54 0.53 0.53 0.54 0.52 0.52 0.51 0.49 0.46 0.45 0.45 0.44 0.43 0.45 0.47 0.53 0.45 0.60 0.61 0.55 0.43 0.33 0.53 0.52 0.55 0.48 0.46 0.46 0.51 0.51 0.48 0.47 0.51 0.57 0.71 0.64 0.52 0.51 0.70 0.84 0.96 1.01 0.91 1.03 1.06 1.14 1.21 1.33 1.25 1.03 0.96 0.91
0.56 0.55 0.55 0.57 0.58 0.55 0.54 0.54 0.52 0.49 0.46 0.43 0.43 0.45 0.46 0.44 0.49 0.47 0.46 0.60 0.65 0.62 0.43 0.35 0.45 0.54 0.51 0.46 0.44 0.44 0.51 0.50 0.49 0.48 0.47 0.49 0.56 0.60 0.43 0.38 0.61 0.80 0.85 0.92 0.95 0.93 0.87 0.85 0.90 1.14 1.11 1.07 1.04 1.01
0.50 0.49 0.49 0.55 0.58 0.55 0.57 0.55 0.51 0.46 0.44 0.44 0.47 0.54 0.59 0.59 0.54 0.51 0.61 0.64 0.71 0.60 0.53 0.37 0.52 0.54 0.55 0.52 0.45 0.46 0.43 0.50 0.48 0.47 0.50 0.47 0.52 0.54 0.38 0.48 0.49 0.62 0.71 0.74 0.76 0.84 0.86 0.88 1.14 1.01 1.05 1.05 0.99 0.95
0.47 0.48 0.48 0.53 0.52 0.52 0.52 0.52 0.49 0.45 0.45 0.47 0.54 0.61 0.63 0.59 0.53 0.61 0.73 0.72 0.75 0.63 0.45 0.43 0.41 0.47 0.63 0.54 0.59 0.62 0.55 0.39 0.44 0.38 0.41 0.45 0.45 0.42 0.48 0.45 0.50 0.53 0.61 0.64 0.70 0.75 0.98 0.77 1.18 1.10 1.02 0.96 0.88 0.92
0.46 0.48 0.47 0.50 0.50 0.50 0.48 0.48 0.45 0.47 0.50 0.54 0.59 0.58 0.55 0.57 0.68 0.68 0.62 0.57 0.58 0.58 0.53 0.41 0.48 0.42 0.50 0.50 0.53 0.55 0.56 0.43 0.36 0.40 0.43 0.39 0.36 0.44 0.49 0.54 0.53 0.60 0.64 0.68 0.62 0.67 0.78 0.96 1.13 1.02 0.97 1.01 0.98 0.92
0.46 0.47 0.47 0.47 0.48 0.49 0.48 0.46 0.42 0.48 0.50 0.50 0.52 0.54 0.62 0.62 0.55 0.54 0.48 0.47 0.51 0.43 0.47 0.46 0.47 0.46 0.56 0.44 0.46 0.55 0.51 0.50 0.40 0.42 0.39 0.38 0.34 0.39 0.46 0.50 0.55 0.62 0.69 0.75 0.73 0.79 0.95 0.95 0.95 0.84 0.90 0.95 0.96 0.98
0.47 0.48 0.49 0.47 0.47 0.47 0.46 0.45 0.43 0.43 0.39 0.39 0.44 0.50 0.49 0.48 0.46 0.42 0.42 0.48 0.45 0.42 0.52 0.52 0.61 0.63 0.61 0.62 0.53 0.55 0.48 0.48 0.37 0.45 0.39 0.33 0.38 0.42 0.43 0.49 0.52 0.55 0.69 0.85 0.80 0.81 0.81 0.90 1.00 0.93 0.91 0.88 0.93 0.96
0.50 0.47 0.49 0.47 0.45 0.44 0.44 0.44 0.42 0.40 0.46 0.49 0.42 0.36 0.40 0.40 0.31 0.31 0.33 0.38 0.43 0.51 0.59 0.62 0.59 0.62 0.68 0.64 0.57 0.56 0.49 0.44 0.53 0.47 0.38 0.39 0.53 0.51 0.48 0.47 0.54 0.61 0.68 0.76 0.76 0.75 0.77 0.91 1.03 0.99 0.91 0.87 0.93 0.93
0.52 0.48 0.46 0.46 0.45 0.44 0.44 0.43 0.41 0.44 0.50 0.43 0.32 0.24 0.28 0.30 0.34 0.41 0.45 0.49 0.58 0.57 0.61 0.58 0.54 0.56 0.68 0.60 0.59 0.49 0.55 0.56 0.46 0.41 0.44 0.67 0.74 0.71 0.73 0.57 0.63 0.65 0.64 0.64 0.70 0.73 0.87 0.91 0.97 0.97 0.92 0.92 0.92 0.89
0.54 0.48 0.45 0.45 0.46 0.44 0.44 0.41 0.40 0.45 0.45 0.35 0.36 0.23 0.32 0.39 0.44 0.47 0.49 0.49 0.56 0.58 0.55 0.51 0.52 0.62 0.60 0.56 0.59 0.53 0.47 0.43 0.49 0.54 0.67 0.77 0.78 0.87 0.85 0.74 0.81 0.75 0.75 0.78 0.79 0.87 0.96 0.93 0.92 0.97 0.96 0.95 0.93 0.92
0.56 0.50 0.44 0.46 0.47 0.45 0.41 0.39 0.43 0.48 0.40 0.33 0.30 0.30 0.38 0.36 0.39 0.47 0.49 0.48 0.56 0.55 0.56 0.62 0.55 0.51 0.48 0.52 0.52 0.48 0.46 0.48 0.59 0.73 0.79 0.88 0.87 0.81 0.83 0.88 0.86 0.91 0.90 0.92 0.92 0.93 0.91 0.86 0.94 0.92 0.96 0.96 0.97 0.98
0.57 0.46 0.51 0.49 0.46 0.45 0.39 0.44 0.44 0.37 0.32 0.29 0.33 0.33 0.28 0.31 0.41 0.46 0.49 0.50 0.58 0.54 0.53 0.59 0.50 0.47 0.58 0.49 0.49 0.59 0.57 0.64 0.76 0.80 0.86 0.91 0.87 0.91 0.95 0.99 0.95 0.90 0.88 0.86 0.93 0.93 0.88 0.91 0.93 0.93 0.91 0.99 1.01 0.96
0.51 0.53 0.51 0.47 0.46 0.47 0.46 0.41 0.38 0.30 0.26 0.25 0.29 0.35 0.36 0.40 0.45 0.48 0.54 0.59 0.57 0.59 0.59 0.58 0.65 0.53 0.50 0.48 0.53 0.67 0.72 0.76 0.77 0.79 0.84 0.93 0.95 1.00 1.06 0.99 0.96 0.95 0.89 0.87 0.87 0.88 0.87 0.89 0.92 0.96 1.00 1.02 1.02 1.03
0.55 0.57 0.49 0.46 0.49 0.45 0.35 0.33 0.35 0.28 0.28 0.32 0.31 0.30 0.34 0.43 0.54 0.59 0.59 0.65 0.72 0.75 0.69 0.64 0.56 0.54 0.58 0.67 0.66 0.69 0.72 0.74 0.75 0.80 0.88 0.98 1.06 1.06 1.05 1.05 1.02 0.97 0.94 0.93 0.91 0.91 0.95 1.00 1.00 1.00 0.99 0.99 0.94 0.96
0.57 0.52 0.47 0.44 0.46 0.41 0.28 0.30 0.34 0.28 0.33 0.38 0.35 0.37 0.40 0.46 0.57 0.64 0.68 0.73 0.74 0.71 0.64 0.61 0.62 0.69 0.70 0.74 0.80 0.80 0.82 0.88 0.88 0.83 0.88 0.98 1.05 1.07 1.04 1.03 1.03 1.03 1.02 1.02 1.02 1.02 1.00 0.98 0.99 0.98 0.97 0.97 0.94 0.95
0.49 0.45 0.42 0.42 0.42 0.38 0.32 0.32 0.32 0.33 0.35 0.34 0.42 0.40 0.47 0.62 0.62 0.66 0.70 0.79 0.72 0.68 0.64 0.73 0.74 0.79 0.89 0.91 0.94 0.95 0.96 1.00 0.94 0.95 0.94 0.93 1.02 1.03 1.00 1.01 1.02 1.01 0.97 0.95 0.92 0.93 0.96 0.96 0.98 1.01 1.02 1.01 1.01 0.97
0.41 0.45 0.42 0.40 0.35 0.33 0.30 0.35 0.31 0.37 0.33 0.37 0.44 0.56 0.55 0.57 0.63 0.67 0.77 0.68 0.68 0.71 0.76 0.79 0.83 0.85 0.87 0.89 0.95 1.00 1.03 1.04 1.04 1.03 1.05 1.03 0.95 0.95 0.95 0.96 0.94 0.92 0.93 0.93 0.94 0.95 0.96 0.98 1.00 1.01 1.02 0.98 1.01 0.99
0.45 0.44 0.37 0.33 0.28 0.25 0.24 0.39 0.33 0.38 0.37 0.49 0.55 0.53 0.58 0.61 0.67 0.77 0.63 0.68 0.72 0.82 0.86 0.88 0.89 0.93 0.92 0.97 1.00 1.02 1.04 1.02 0.98 0.99 1.00 1.00 1.00 1.00 0.99 0.98 0.98 0.95 0.94 0.97 0.99 0.96 0.94 0.99 0.98 0.97 0.97 0.99 0.96 0.92
0.45 0.36 0.31 0.31 0.30 0.24 0.34 0.36 0.48 0.51 0.53 0.50 0.52 0.52 0.57 0.62 0.69 0.62 0.57 0.64 0.73 0.83 0.85 0.87 0.90 0.89 0.92 0.94 0.92 0.95 0.99 1.02 0.99 0.99 1.02 0.97 0.94 0.95 0.99 0.97 0.98 0.99 0.99 1.00 0.98 0.96 0.97 0.96 0.96 0.95 0.92 0.88 0.87 0.87
0.22 0.23 0.29 0.22 0.34 0.34 0.40 0.46 0.49 0.49 0.49 0.54 0.53 0.55 0.59 0.66 0.56 0.55 0.55 0.63 0.73 0.78 0.83 0.88 0.88 0.88 0.85 0.88 0.93 0.96 1.04 1.00 0.95 0.93 0.99 1.00 0.97 0.96 0.95 0.97 0.98 0.99 1.02 0.95 0.91 0.92 0.93 0.95 0.94 0.91 0.86 0.81 0.76 0.70
0.23 0.30 0.31 0.36 0.44 0.47 0.47 0.45 0.49 0.51 0.54 0.53 0.56 0.62 0.64 0.58 0.52 0.49 0.57 0.67 0.73 0.77 0.80 0.81 0.81 0.80 0.82 0.88 0.87 0.91 0.95 1.02 0.99 0.93 0.97 1.00 0.97 0.93 0.90 0.87 0.87 0.93 1.03 1.00 0.96 0.93 0.91 0.91 0.84 0.76 0.71 0.64 0.53 0.44
0.34 0.42 0.54 0.62 0.58 0.56 0.54 0.58 0.60 0.57 0.54 0.53 0.57 0.57 0.55 0.48 0.48 0.57 0.69 0.76 0.77 0.80 0.82 0.78 0.78 0.73 0.73 0.78 0.86 0.92 0.94 0.95 0.94 0.93 0.98 0.97 0.95 0.93 0.87 0.79 0.75 0.79 0.86 0.83 0.79 0.74 0.69 0.64 0.56 0.50 0.45 0.42 0.42 0.41
0.53 0.56 0.49 0.56 0.57 0.61 0.55 0.57 0.57 0.55 0.58 0.61 0.59 0.53 0.51 0.50 0.52 0.67 0.73 0.80 0.81 0.78 0.73 0.67 0.62 0.63 0.61 0.64 0.67 0.65 0.62 0.66 0.67 0.68 0.67 0.65 0.65 0.64 0.63 0.62 0.63 0.61 0.60 0.60 0.59 0.57 0.54 0.51 0.48 0.45 0.43 0.43 0.44 0.45
0.57 0.62 0.62 0.56 0.60 0.61 0.61 0.59 0.59 0.62 0.65 0.61 0.55 0.54 0.57 0.65 0.70 0.72 0.74 0.74 0.72 0.67 0.60 0.51 0.51 0.53 0.54 0.54 0.53 0.52 0.51 0.50 0.46 0.41 0.38 0.37 0.38 0.40 0.44 0.46 0.47 0.47 0.48 0.49 0.50 0.47 0.47 0.45 0.42 0.40 0.41 0.42 0.43 0.46
0.61 0.69 0.61 0.60 0.56 0.55 0.61 0.67 0.64 0.67 0.68 0.66 0.66 0.67 0.66 0.69 0.73 0.75 0.67 0.61 0.60 0.57 0.56 0.54 0.51 0.48 0.46 0.45 0.46 0.46 0.48 0.48 0.47 0.43 0.40 0.39 0.41 0.46 0.47 0.47 0.46 0.45 0.45 0.43 0.43 0.43 0.42 0.44 0.46 0.47 0.48 0.49 0.50 0.50
0.69 0.66 0.60 0.59 0.57 0.62 0.65 0.66 0.66 0.66 0.65 0.63 0.63 0.59 0.60 0.66 0.67 0.65 0.60 0.60 0.60 0.60 0.59 0.59 0.59 0.59 0.55 0.51 0.47 0.44 0.41 0.45 0.45 0.47 0.47 0.48 0.48 0.49 0.49 0.49 0.49 0.50 0.50 0.49 0.48 0.48 0.48 0.49 0.49 0.48 0.48 0.49 0.50 0.51
0.63 0.59 0.57 0.54 0.57 0.64 0.64 0.60 0.58 0.58 0.60 0.58 0.56 0.62 0.58 0.59 0.57 0.63 0.64 0.60 0.58 0.56 0.58 0.58 0.56 0.56 0.58 0.59 0.57 0.55 0.54 0.52 0.52 0.54 0.54 0.54 0.53 0.54 0.54 0.54 0.54 0.53 0.51 0.50 0.51 0.53 0.55 0.55 0.57 0.58 0.58 0.59 0.60 0.61
0.57 0.57 0.58 0.60 0.57 0.54 0.59 0.57 0.54 0.53 0.54 0.53 0.54 0.56 0.53 0.53 0.51 0.61 0.66 0.66 0.64 0.62 0.60 0.64 0.66 0.65 0.63 0.64 0.62 0.60 0.58 0.55 0.49 0.46 0.44 0.44 0.45 0.48 0.51 0.53 0.54 0.53 0.55 0.57 0.58 0.59 0.59 0.61 0.62 0.63 0.65 0.65 0.66 0.66
Wind_Speed
16 15 14 13 13 12 11 10 10 9 9 10 10 10 11 10 10 9 8 9 11 16 22 21 22 20 21 17 19 20 22 24 20 25 26 24 24 22 23 23 27 24 25 25 23 25 28 15 18 19 13 12 11 9
16 16 15 14 13 12 11 11 10 9 9 10 10 10 10 10 10 9 7 8 10 13 19 21 23 24 26 23 17 17 19 19 19 16 20 20 19 16 16 18 19 23 18 19 16 18 18 17 17 16 17 15 13 13
15 15 15 14 14 13 12 12 11 10 10 10 10 10 10 10 9 8 8 9 9 9 14 19 21 22 25 26 25 18 16 11 20 19 19 19 18 18 17 17 18 16 17 19 16 17 17 24 20 17 17 15 14 15
16 15 14 14 13 13 12 12 12 11 11 10 10 10 10 9 9 8 7 7 6 6 5 6 11 18 22 25 26 27 25 21 16 19 20 21 20 20 20 17 17 18 18 19 23 24 25 15 15 14 15 15 15 15
17 16 15 14 14 13 13 12 12 12 12 12 11 11 11 10 9 8 7 5 4 3 4 7 8 14 16 21 24 25 25 23 22 22 22 22 21 22 23 24 21 16 18 18 20 14 16 12 14 16 18 17 17 16
17 16 16 15 15 14 14 13 13 13 13 12 12 12 12 10 8 6 4 3 3 3 4 4 5 8 11 14 18 22 23 24 23 23 23 24 22 24 23 23 25 15 13 20 18 19 19 18 14 13 10 16 17 14
18 17 16 16 15 15 14 14 13 13 13 12 13 12 11 8 7 6 5 5 4 4 4 4 3 6 8 10 12 15 19 20 21 23 24 25 24 24 27 28 25 21 20 18 19 20 17 17 18 19 16 14 12 13
17 17 17 16 15 15 15 14 14 13 13 12 11 10 8 7 7 7 6 6 5 4 4 4 3 7 4 7 8 11 14 16 19 21 22 24 23 24 28 27 27 27 27 27 23 24 25 23 23 20 19 16 14 13
17 17 17 16 15 14 13 13 13 13 12 11 9 8 7 7 6 5 4 5 6 5 4 5 4 3 4 5 6 9 11 14 14 18 21 21 24 23 22 26 27 28 28 28 23 19 22 23 27 18 17 15 14 13
17 17 17 15 14 14 13 12 11 11 10 9 8 8 7 5 5 4 4 4 4 4 5 6 7 7 7 7 6 8 9 12 15 18 18 22 23 25 25 23 21 24 25 25 25 22 18 21 16 14 16 17 16 16
15 15 15 15 14 13 12 11 9 9 8 9 8 7 6 6 6 5 5 4 4 4 4 5 5 6 7 7 8 8 9 9 12 16 18 20 21 21 24 25 23 22 23 23 24 25 18 19 22 20 19 18 17 17
15 15 15 14 14 13 11 10 9 8 8 8 9 8 7 7 6 6 5 4 4 4 4 3 3 4 4 5 6 6 8 8 9 9 11 18 18 18 19 23 24 24 24 23 20 20 22 18 19 17 17 18 18 18
16 15 15 14 13 13 11 11 10 9 9 9 8 7 7 7 5 6 4 4 3 3 3 2 4 5 3 3 4 4 5 6 6 5 7 9 8 12 15 16 21 22 23 21 20 17 16 16 15 15 16 18 18 19
16 15 14 14 14 12 12 11 10 8 9 9 8 7 7 7 6 5 4 3 3 4 4 5 6 5 5 5 5 4 4 4 4 4 5 3 6 6 5 14 16 20 21 22 20 17 15 14 13 13 14 15 17 17
16 14 15 14 14 13 12 11 11 10 10 9 8 7 8 8 5 4 4 5 3 4 5 7 7 6 6 6 5 4 4 4 2 2 3 7 9 8 6 8 11 15 15 17 18 16 14 13 13 13 13 15 16 16
17 13 15 14 13 13 12 11 12 12 10 9 8 8 6 4 4 4 4 4 3 4 6 5 4 4 4 5 5 6 4 1 5 6 9 8 8 9 11 12 14 13 15 14 15 15 14 13 13 12 12 13 14 15
18 13 14 14 14 13 12 12 13 12 11 10 8 8 7 4 3 5 4 4 5 6 4 2 3 3 2 4 4 3 3 7 10 9 9 8 9 8 8 8 9 13 15 15 15 14 13 13 12 12 12 12 12 14
17 16 16 15 14 13 14 13 12 12 11 10 9 3 3 3 4 4 3 3 4 3 2 2 3 4 4 4 5 6 12 12 12 11 9 9 6 5 7 7 8 11 12 12 13 13 13 12 11 11 11 14 14 15
17 17 17 16 14 14 14 13 12 11 11 8 7 5 4 4 3 3 5 4 3 3 4 4 4 5 5 6 11 13 12 11 10 9 8 6 2 4 5 6 9 10 12 12 13 12 11 10 9 11 14 15 15 16
17 17 18 16 15 14 13 12 12 11 10 7 6 4 4 3 2 2 3 3 3 3 3 4 5 6 8 12 12 10 9 8 6 4 2 3 5 6 7 9 11 12 13 12 12 11 12 13 16 18 20 18 16 15
16 17 18 16 15 13 12 12 12 10 8 7 4 5 4 3 2 1 0 1 1 2 2 3 7 7 6 6 2 1 1 4 6 7 7 9 10 11 15 16 15 15 15 16 18 19 19 18 19 18 15 14 14 13
19 18 16 15 14 13 12 12 10 8 8 6 7 5 5 3 3 3 2 3 3 4 3 4 5 4 5 6 7 8 9 9 10 11 13 13 13 15 16 17 18 19 20 20 20 19 19 19 16 14 14 13 10 8
20 17 15 14 13 13 12 10 11 9 9 8 7 7 6 5 5 4 5 7 7 8 8 8 9 9 10 11 12 13 12 11 11 14 17 18 18 19 20 21 21 21 20 19 19 19 16 14 12 11 10 9 6 6
17 15 14 13 13 12 12 12 11 10 9 9 8 8 8 8 8 10 9 9 10 12 13 14 14 13 14 14 15 15 16 18 20 21 21 20 19 20 19 18 18 17 16 15 15 14 12 10 9 8 6 3 1 2
16 14 14 13 13 13 13 11 11 11 10 10 9 9 10 10 11 12 12 13 16 18 19 19 20 20 20 19 18 18 18 18 18 18 16 17 17 17 16 15 14 13 12 12 11 10 7 4 3 3 2 2 4 6
14 14 14 14 13 12 11 11 11 11 11 10 9 10 10 10 9 11 11 11 13 15 16 17 17 18 19 20 21 21 19 20 20 18 17 17 17 16 15 13 11 8 8 6 5 4 5 3 3 3 6 8 10 11
14 15 14 13 12 12 12 12 11 11 10 9 8 8 8 9 10 11 12 12 12 13 15 15 15 17 18 18 18 18 17 17 18 18 17 15 13 12 10 9 8 7 6 5 4 3 1 2 4 5 7 9 10 12
13 13 13 13 13 14 12 11 11 9 7 7 8 9 11 12 13 14 15 14 13 11 10 11 14 15 15 14 15 15 15 14 14 13 13 12 11 9 8 7 7 6 5 4 2 2 3 5 6 8 10 12 13 14
12 13 13 12 13 13 12 12 11 11 14 16 17 15 14 13 13 12 11 10 10 11 11 12 12 12 13 13 13 13 12 11 11 11 10 9 8 7 6 6 5 4 4 4 5 6 7 8 10 12 13 14 15 17
12 13 13 14 14 14 14 15 16 17 17 16 17 16 16 14 12 12 11 11 10 10 10 10 10 10 10 10 11 11 10 10 9 8 8 7 6 5 5 5 5 5 6 7 8 9 10 11 12 13 14 15 16 17
16 19 21 19 19 18 17 17 17 17 17 17 16 15 14 14 14 13 12 11 11 10 9 8 8 8 8 8 8 8 8 7 7 6 5 5 5 5 5 6 7 8 9 9 10 10 12 12 13 16 17 19 20 21
17 17 17 18 16 15 15 15 15 15 14 13 13 13 12 12 12 10 10 10 9 8 7 7 7 7 6 6 5 5 5 4 4 4 5 5 5 6 7 8 8 8 9 10 11 13 14 16 17 18 19 21 22 23
16 17 16 16 15 14 13 12 11 11 11 11 10 9 8 8 7 6 6 5 5 5 4 4 3 3 2 3 2 2 3 4 4 5 6 6 6 6 7 8 8 9 11 12 13 15 16 18 18 20 20 21 22 23
Wind_Direction
271 275 276 277 275 280 286 289 294 300 310 315 316 320 326 328 327 320 290 275 264 251 242 242 238 234 224 225 222 232 225 220 223 221 226 228 232 234 236 236 226 225 226 231 240 239 241 245 238 242 235 238 240 247
271 269 272 272 273 274 279 284 287 295 304 311 315 315 319 324 325 323 303 298 282 256 238 245 240 232 226 224 225 216 226 229 222 226 221 225 228 231 236 229 222 228 233 237 238 238 243 242 236 234 233 238 245 243
273 266 268 268 266 270 274 278 280 286 294 304 310 313 313 316 320 317 308 307 297 271 257 237 230 229 220 220 218 215 206 207 225 219 224 225 223 234 229 228 234 233 227 238 235 237 247 241 223 230 234 237 241 245
269 267 264 263 264 266 271 273 275 279 285 294 303 309 310 308 310 314 308 309 305 282 246 220 215 227 224 220 220 224 228 233 235 225 228 230 231 230 232 228 229 237 242 243 248 256 249 270 225 230 234 242 243 249
265 262 260 260 261 265 269 273 274 274 278 284 293 300 304 301 299 303 301 297 286 280 253 244 266 236 222 221 224 226 227 232 233 236 235 235 235 230 234 239 235 244 240 239 245 237 227 243 232 244 244 246 243 246
261 258 257 257 258 263 267 271 273 274 274 278 285 291 295 294 285 287 300 299 281 282 277 240 242 230 218 218 221 224 228 232 235 235 234 234 233 233 236 237 232 236 248 237 242 240 247 247 252 274 226 236 238 240
257 255 254 255 259 261 263 267 270 272 273 277 281 284 284 280 264 267 279 286 286 291 279 262 247 203 213 215 219 222 224 228 230 233 232 235 235 236 237 238 241 235 233 241 241 243 243 243 240 235 239 247 236 229
252 251 251 254 257 260 262 264 267 269 270 275 276 273 272 261 263 269 263 258 270 285 256 237 232 210 209 222 222 218 221 224 230 233 235 233 236 238 238 238 241 241 241 242 249 250 246 247 244 232 233 229 226 223
250 249 248 251 253 257 261 263 265 266 267 264 259 250 253 257 259 253 253 262 261 265 261 232 237 244 252 255 238 233 232 234 233 232 235 235 233 233 241 242 244 244 242 238 236 242 254 239 230 219 217 213 217 220
248 246 245 246 249 252 257 261 261 260 256 246 237 237 243 244 238 246 261 262 259 243 241 246 255 261 275 265 244 244 243 243 243 241 237 233 240 242 237 242 244 237 235 237 233 231 225 211 219 220 221 230 234 235
243 242 241 240 242 246 248 251 252 254 240 225 231 227 241 240 238 246 249 251 247 258 241 248 260 280 272 266 258 249 255 255 254 251 241 242 243 242 240 238 236 235 231 235 230 226 228 228 232 242 242 237 235 235
239 238 236 235 235 237 239 240 242 238 232 232 234 236 229 223 231 238 240 245 247 254 220 234 271 295 278 266 256 253 251 256 257 258 253 241 246 243 243 237 234 228 223 222 222 225 234 241 228 236 238 234 232 233
234 232 231 229 229 230 231 230 231 234 235 212 214 214 218 217 228 228 230 236 238 217 195 260 299 299 281 256 251 254 247 250 273 254 257 256 277 242 244 235 218 217 217 217 216 218 225 214 219 231 234 231 229 227
225 225 224 222 222 222 221 222 221 215 203 203 201 209 211 207 219 225 254 266 224 217 263 288 296 274 269 272 254 249 236 258 243 239 240 292 296 275 296 222 208 210 208 214 214 214 210 216 230 234 230 223 219 219
217 218 215 215 213 213 213 211 207 205 200 200 203 202 209 209 215 247 246 239 235 247 291 299 291 267 261 259 224 233 220 223 259 312 304 307 277 252 253 214 214 203 209 207 201 205 211 220 230 229 227 221 220 219
205 210 210 205 204 203 201 202 202 194 194 196 198 201 218 199 229 228 220 217 240 282 300 302 306 272 251 218 207 211 224 219 325 299 304 311 296 258 246 236 219 206 203 203 205 211 219 223 223 224 220 217 213 208
195 201 192 190 190 191 189 184 184 187 190 189 191 204 219 227 219 225 219 244 268 287 293 287 256 232 238 216 220 237 275 294 306 306 306 303 301 275 235 200 195 198 203 205 204 212 210 213 212 206 205 204 199 192
190 190 185 180 183 184 180 179 182 184 188 191 197 179 196 232 213 200 214 261 285 282 257 260 269 211 220 243 268 288 299 291 293 294 294 299 305 247 186 182 184 185 188 192 195 195 195 194 195 203 198 187 181 182
180 177 177 176 173 172 173 176 179 181 185 194 199 209 222 196 201 246 253 272 274 260 240 251 242 240 259 275 298 298 293 289 287 287 284 294 250 162 171 171 168 170 170 173 176 182 186 186 179 173 167 168 167 161
164 166 168 169 167 168 168 171 171 175 175 171 199 196 180 184 235 252 252 253 242 237 239 247 261 292 293 296 294 287 286 285 274 260 239 125 121 123 136 147 152 145 148 149 151 153 155 150 143 142 143 145 150 156
156 156 159 161 164 166 165 165 168 172 175 175 151 152 168 155 146 160 184 318 226 307 309 314 314 312 314 322 328 320 68 93 111 127 128 119 110 111 108 114 122 135 136 134 135 133 133 135 139 140 144 151 151 149
147 151 152 153 155 156 159 160 163 166 167 158 149 146 146 136 115 95 54 75 62 18 13 5 17 47 64 67 87 91 87 98 108 106 114 115 115 119 114 113 118 120 125 128 129 129 127 128 131 138 139 143 147 152
140 142 144 144 148 147 155 149 149 147 150 144 142 144 135 116 94 94 94 64 57 41 42 65 72 83 83 75 87 90 91 88 104 117 117 115 113 116 115 114 115 114 116 121 125 126 126 126 124 127 137 141 145 149
135 136 139 139 141 141 141 141 140 140 140 140 140 130 116 108 99 97 91 72 58 58 69 78 78 84 85 79 92 98 90 88 105 109 114 110 113 115 118 118 116 116 119 121 128 130 124 121 124 132 127 139 174 245
128 127 131 131 133 134 135 134 136 137 136 136 131 123 115 108 108 102 86 76 73 75 81 84 79 80 79 81 90 100 95 94 104 108 107 110 111 112 115 119 117 114 122 128 133 137 138 135 148 167 228 261 293 293
118 123 125 126 129 128 129 132 131 131 132 131 125 118 117 110 112 107 97 87 83 84 83 83 81 77 76 82 89 94 94 93 96 101 104 106 107 109 109 108 108 102 114 126 144 173 194 227 242 273 287 295 301 299
115 117 119 118 123 126 127 127 128 131 130 125 124 121 121 120 116 115 116 106 100 92 90 83 80 82 83 86 89 92 95 96 96 98 103 103 103 102 99 99 95 96 105 105 102 110 155 265 285 296 302 305 308 308
111 116 117 116 120 125 122 123 122 116 116 120 123 121 120 119 121 120 117 113 102 104 97 85 82 84 84 88 91 93 94 95 96 96 95 92 90 89 88 86 84 78 67 51 31 359 327 313 309 308 308 308 310 311
111 117 118 119 122 123 112 108 100 99 102 108 112 113 115 116 123 123 127 127 110 89 91 98 92 87 86 85 85 87 89 92 94 94 92 89 84 77 72 67 58 42 30 8 352 335 330 325 320 316 314 310 311 311
105 120 114 110 114 113 115 112 107 105 103 104 110 112 109 110 114 116 115 116 115 109 102 94 90 88 87 86 83 80 79 80 81 82 79 75 69 61 51 38 24 8 355 344 338 335 330 318 318 317 317 320 321 319
107 111 111 111 111 114 115 115 113 110 108 107 106 106 104 106 101 104 106 106 104 101 99 95 89 81 81 80 81 80 79 71 65 58 55 47 36 23 10 360 352 345 341 339 338 334 333 331 328 324 321 320 319 317
110 109 111 111 113 116 117 117 117 115 111 107 106 106 108 103 97 94 92 102 101 96 88 86 83 75 75 81 73 62 50 35 13 5 9 0 350 344 343 341 342 345 344 342 338 335 334 332 331 330 329 327 324 323
109 106 107 107 108 111 115 118 112 112 111 112 113 109 104 104 100 88 96 92 83 79 80 65 58 64 45 29 28 24 12 3 8 15 13 6 358 345 341 342 344 341 342 341 339 338 338 340 339 338 335 331 329 327